GW1838 Weather Reports


time (UTC)temp
F
wind
direction
speed
knots
gust
knots
rain 1hr
in
rain 24hr
in
rain mn
in
humidity
%
barometer
mb
20260503032304 51 288 2.6 6.1 0.00 0.00 0.00 81 1009.7
20260503031804 51 283 2.6 5.2 0.00 0.00 0.00 83 1009.8
20260503031304 51 268 3.5 6.1 0.00 0.00 0.00 84 1009.8
20260503030804 51 267 3.5 6.1 0.00 0.00 0.00 86 1010.0
20260503025305 51 258 4.3 6.1 0.00 0.00 0.00 86 1010.0
20260503024304 51 259 6.1 8.7 0.00 0.00 0.00 86 1010.1
20260503023304 51 257 3.5 6.1 0.00 0.00 0.00 85 1009.8
20260503022804 52 269 2.6 5.2 0.00 0.00 0.00 85 1009.8
20260503022305 52 250 4.3 6.1 0.00 0.00 0.00 84 1009.9
20260503021305 52 267 2.6 5.2 0.00 0.00 0.00 84 1009.9
20260503012805 51 202 1.7 2.6 0.00 0.00 0.00 86 1010.2
20260503012305 51 201 2.6 4.3 0.00 0.00 0.00 86 1010.3
20260503011805 51 184 1.7 2.6 0.00 0.00 0.00 86 1010.4
20260503011304 51 184 1.7 2.6 0.00 0.00 0.00 86 1010.3
20260503010804 51 184 1.7 4.3 0.00 0.00 0.00 86 1010.2
20260503004804 51 184 1.7 4.3 0.00 0.00 0.00 87 1009.8
20260503004305 51 184 1.7 2.6 0.00 0.00 0.00 86 1009.8
20260503003805 51 184 0.9 2.6 0.00 0.00 0.00 86 1009.8
20260503003304 51 184 0.0 0.9 0.00 0.00 0.00 86 1009.8
20260503002805 51 184 0.9 2.6 0.00 0.00 0.00 86 1009.8
20260503000304 52 184 1.7 2.6 0.00 0.00 0.00 86 1009.7
20260502234304 52 188 1.7 2.6 0.00 0.00 0.00 85 1009.7
20260502233304 52 173 2.6 4.3 0.00 0.00 0.00 84 1009.8
20260502231804 52 167 1.7 2.6 0.00 0.00 0.00 84 1009.8
20260502225804 52 170 2.6 4.3 0.00 0.00 0.00 84 1009.7
20260502224805 53 149 1.7 4.3 0.00 0.00 0.00 83 1009.6
20260502223804 53 158 2.6 4.3 0.00 0.00 0.00 83 1009.7
20260502222804 53 153 2.6 5.2 0.00 0.00 0.00 82 1009.6
20260502221804 53 113 0.9 2.6 0.00 0.00 0.00 82 1009.5
20260502221304 53 142 2.6 4.3 0.00 0.00 0.00 81 1009.7
20260502220803 54 114 1.7 2.6 0.00 0.00 0.00 81 1009.7
20260502214805 54 112 0.9 2.6 0.00 0.00 0.00 80 1009.6
20260502213804 54 111 0.9 2.6 0.00 0.00 0.00 80 1009.5
20260502213303 54 109 0.0 1.7 0.00 0.00 0.00 80 1009.6
20260502211306 54 136 0.9 2.6 0.00 0.00 0.00 81 1009.4
20260502210806 54 142 1.7 2.6 0.00 0.00 0.00 80 1009.3
20260502210306 54 152 1.7 2.6 0.00 0.00 0.00 80 1009.1
20260502205307 54 121 1.7 2.6 0.00 0.00 0.00 80 1009.3
20260502204807 54 135 0.9 2.6 0.00 0.00 0.00 80 1009.1
20260502204306 54 151 2.6 4.3 0.00 0.00 0.00 79 1009.1
20260502203806 54 156 1.7 2.6 0.00 0.00 0.00 79 1009.2
20260502203306 54 119 1.7 2.6 0.00 0.00 0.00 79 1009.2
20260502202806 54 114 0.9 2.6 0.00 0.00 0.00 79 1009.2
20260502202306 54 168 2.6 5.2 0.00 0.00 0.00 78 1009.2
20260502201806 55 157 2.6 4.3 0.00 0.00 0.00 78 1009.4
20260502200806 55 144 1.7 2.6 0.00 0.00 0.00 78 1009.4
20260502200306 55 114 1.7 4.3 0.00 0.00 0.00 78 1009.5
20260502193806 57 141 1.7 4.3 0.00 0.00 0.00 74 1009.6
20260502193306 57 174 0.9 2.6 0.00 0.00 0.00 75 1009.7
20260502191305 57 142 0.9 2.6 0.00 0.00 0.00 77 1010.0
20260502184807 55 147 3.5 5.2 0.00 0.00 0.00 79 1010.4
20260502183306 56 161 1.7 2.6 0.00 0.00 0.00 77 1010.5
20260502181806 56 137 1.7 2.6 0.00 0.00 0.00 77 1010.5
20260502170306 53 166 0.9 2.6 0.00 0.00 0.00 81 1010.7
20260502164305 53 166 1.7 2.6 0.00 0.00 0.00 82 1011.0
20260502163806 53 166 1.7 2.6 0.00 0.00 0.00 82 1011.1
20260502163306 53 166 1.7 2.6 0.00 0.00 0.00 82 1011.2
20260502162806 53 166 1.7 2.6 0.00 0.00 0.00 81 1011.2
20260502161806 53 166 0.9 2.6 0.00 0.00 0.00 81 1011.5
20260502160306 54 166 1.7 2.6 0.00 0.00 0.00 81 1011.4
20260502152305 53 167 0.9 2.6 0.00 0.00 0.00 84 1011.2
20260502151806 53 166 1.7 2.6 0.00 0.00 0.00 85 1011.1
20260502151306 53 161 1.7 2.6 0.00 0.00 0.00 85 1011.1
20260502150806 53 154 1.7 2.6 0.00 0.00 0.00 85 1011.2
20260502150306 53 158 1.7 2.6 0.00 0.00 0.00 85 1011.2
20260502130306 55 336 3.5 6.1 0.00 0.00 0.00 77 1011.6
20260502123305 53 297 1.7 2.6 0.00 0.00 0.00 81 1011.7
20260502121805 53 266 2.6 6.1 0.00 0.00 0.00 82 1011.4
20260502121307 52 259 2.6 6.1 0.00 0.00 0.00 83 1011.4
20260502120806 52 278 4.3 8.7 0.00 0.00 0.00 83 1011.5
20260502120306 52 270 3.5 6.1 0.00 0.00 0.00 83 1011.5
20260502115806 52 260 3.5 7.0 0.00 0.00 0.00 84 1011.5
20260502115306 51 255 4.3 6.1 0.00 0.00 0.00 84 1011.5
20260502113305 51 253 4.3 7.8 0.00 0.00 0.00 84 1011.5
20260502112805 52 252 4.3 6.1 0.00 0.00 0.00 84 1011.6
20260502112306 52 254 4.3 7.8 0.00 0.00 0.00 84 1011.5
20260502110805 52 249 4.3 7.0 0.00 0.00 0.00 83 1011.4
20260502110306 52 243 4.3 8.7 0.00 0.00 0.00 84 1011.4
20260502105306 52 246 3.5 7.8 0.00 0.00 0.00 84 1011.2
20260502104806 51 221 2.6 4.3 0.00 0.00 0.00 84 1011.1
20260502104305 51 221 2.6 5.2 0.00 0.00 0.00 85 1011.0
20260502103306 51 250 4.3 5.2 0.00 0.00 0.00 85 1011.0
20260502102805 51 230 2.6 6.1 0.00 0.00 0.00 85 1010.9
20260502102306 51 235 4.3 6.1 0.00 0.00 0.00 85 1011.0
20260502101306 51 247 4.3 6.1 0.00 0.00 0.00 85 1011.1
20260502100806 51 233 4.3 7.0 0.00 0.00 0.00 85 1011.1
20260502100306 51 243 2.6 5.2 0.00 0.00 0.00 86 1011.1
20260502091306 52 254 7.0 10.4 0.00 0.00 0.00 84 1011.1
20260502090805 52 245 6.1 10.4 0.00 0.00 0.00 84 1011.0
20260502090306 52 244 6.1 10.4 0.00 0.00 0.00 85 1010.9
20260502070806 51 200 6.1 12.2 0.00 0.00 0.00 85 1011.2
20260502065805 51 208 7.8 15.6 0.00 0.00 0.00 85 1011.3
20260502064305 51 201 6.1 10.4 0.00 0.00 0.00 84 1011.2
20260502063806 51 209 4.3 10.4 0.00 0.00 0.00 84 1011.3
20260502062805 51 208 7.8 11.3 0.00 0.00 0.00 83 1011.4
20260502061806 51 208 6.1 11.3 0.00 0.00 0.00 83 1011.4
20260502061306 51 206 7.0 12.2 0.00 0.00 0.00 82 1011.5
20260502060805 51 203 6.1 13.0 0.00 0.00 0.00 81 1011.8
20260502055306 51 209 6.1 14.8 0.00 0.00 0.00 83 1012.0
20260502052805 51 205 7.8 14.8 0.00 0.00 0.00 80 1012.2
20260502051805 51 212 10.4 17.4 0.00 0.00 0.00 80 1012.1
20260502051307 51 219 7.8 13.9 0.00 0.00 0.00 81 1012.1
20260502050805 51 211 7.8 13.9 0.00 0.00 0.00 81 1012.1
20260502050305 51 210 7.8 11.3 0.00 0.00 0.00 82 1012.2
20260502045805 51 207 7.8 14.8 0.00 0.00 0.00 82 1012.2
20260502044805 51 208 8.7 13.0 0.00 0.00 0.00 83 1012.0
20260502044306 51 210 7.8 13.9 0.00 0.00 0.00 83 1012.1
20260502043805 51 209 8.7 12.2 0.00 0.00 0.00 83 1012.1
20260502042306 50 196 8.7 13.9 0.00 0.00 0.00 84 1011.8
20260502041807 50 206 7.8 14.8 0.00 0.00 0.00 83 1012.0
20260502040835 50 200 7.0 13.9 0.00 0.00 0.00 84 1012.1
20260502035306 50 208 8.7 13.0 0.00 0.00 0.00 84 1012.0
20260502034305 50 210 6.1 10.4 0.00 0.00 0.00 83 1011.7
20260502033805 51 206 7.8 12.2 0.00 0.00 0.00 83 1011.7
20260502033306 50 203 7.8 13.9 0.00 0.00 0.00 83 1011.8